Location: *
(46.1833°N, 22.7667°E)
Time: 00:00:47
(UTC+00:00)

Okean 2 Rocket - Pass Details

Date: 17 September 2019
Orbit: 617 x 641 km, 82.5° (Epoch: 22 October)

Event Time Altitude Azimuth Distance (km) Brightness Sun altitude
Rises 17:02:29 0° 188° (S) 2,906 6.5 -5.2°
Reaches altitude 10° 17:04:42 10° 189° (S) 2,007 5.7 -5.5°
Maximum altitude 17:09:10 86° 280° (W) 643 3.2 -6.3°
Drops below altitude 10° 17:13:42 10° 8° (N) 2,038 5.8 -7.1°
Sets 17:15:58 0° 9° (N) 2,954 6.6 -7.5°
